Location: ????????
(54.9045°N, 39.1041°E)
Time: 12:40:55
(UTC+00:00)

Cosmos 2237 Rocket - Pass Details

Date: 14 April 2024
Orbit: 833 x 851 km, 71.0° (Epoch: 26 May)

Event Time Altitude Azimuth Distance (km) Brightness Sun altitude
Exits shadow 01:29:03 - 216° (SW) 2,739 4.3 -7.9°
Reaches altitude 10° 01:29:47 10° 217° (SW) 2,460 4.1 -7.8°
Maximum altitude 01:35:27 80° 305° (NW) 867 2.3 -7.1°
Drops below altitude 10° 01:41:10 10° 32° (NNE) 2,486 5.7 -6.3°
Sets 01:43:39 0° 34° (NE) 3,427 6.6 -6.0°
